Total_Precipitation_Accumulation
2.22 2.29 2.19 2.17 2.07 2.05 2.03 1.92 1.84 1.84 1.73 1.54 1.28 1.25 1.29 1.22 1.26 1.45 1.52 1.55 1.59 1.90 2.34 2.58 2.47 2.22 2.17 2.18 2.21 2.16 1.97 1.80 1.65 1.51 1.34 1.19 1.09 1.02 0.92 0.89 0.86 0.81 0.79
2.48 2.54 2.50 2.45 2.39 2.35 2.41 2.24 2.02 2.16 2.00 1.90 1.70 1.61 1.54 1.58 1.56 1.66 1.87 1.86 1.65 1.67 2.02 2.44 2.62 2.61 2.60 2.50 2.40 2.24 2.08 1.95 1.89 1.83 1.67 1.47 1.32 1.19 1.10 1.06 0.98 0.91 0.87
2.62 2.69 2.83 2.76 2.71 2.65 2.66 2.60 2.46 2.48 2.25 2.13 1.99 1.86 1.81 1.92 1.92 1.86 2.02 2.16 1.93 1.86 1.87 2.04 2.29 2.51 2.68 2.73 2.66 2.53 2.34 2.18 2.06 2.04 2.00 1.84 1.66 1.53 1.43 1.30 1.19 1.15 1.11
2.75 3.01 3.09 3.04 3.05 2.92 2.96 3.06 3.01 2.79 2.65 2.47 2.29 2.02 1.95 2.08 2.11 2.08 2.11 2.25 2.39 2.22 2.09 1.97 2.04 2.21 2.48 2.70 2.78 2.82 2.70 2.52 2.34 2.20 2.13 2.09 2.00 1.85 1.68 1.49 1.38 1.36 1.32
3.21 3.37 3.47 3.50 3.46 3.46 3.43 3.25 3.42 3.24 3.14 2.94 2.54 2.32 2.07 2.01 2.10 2.02 2.09 2.09 2.25 2.29 2.30 2.18 2.07 2.11 2.33 2.67 2.82 2.99 3.01 2.90 2.72 2.51 2.32 2.18 2.16 2.10 1.96 1.79 1.64 1.52 1.44
3.83 3.95 3.92 3.92 3.93 3.96 3.80 3.75 3.77 3.53 3.32 3.24 2.78 2.55 2.35 2.11 2.11 2.08 2.05 2.11 2.08 1.99 2.07 2.17 2.28 2.08 2.23 2.41 2.59 2.83 3.08 3.22 3.13 2.90 2.75 2.60 2.46 2.31 2.10 1.90 1.74 1.63 1.53
4.75 4.81 4.67 4.60 4.45 4.32 4.12 4.01 3.83 3.62 3.37 3.29 3.13 2.72 2.22 1.91 1.87 1.80 1.84 1.98 1.99 1.93 1.99 2.08 2.15 2.10 1.99 2.03 2.12 2.40 2.78 3.18 3.37 3.27 3.08 2.89 2.64 2.45 2.29 2.12 1.94 1.81 1.67
5.62 5.68 5.63 5.42 5.21 4.92 4.45 4.06 3.84 3.64 3.33 3.38 3.32 3.19 2.57 2.13 1.77 1.45 1.53 1.61 1.68 1.83 1.83 1.83 1.95 2.08 2.01 1.98 1.79 1.92 2.20 2.57 3.05 3.30 3.25 3.03 2.81 2.64 2.54 2.44 2.30 2.14 1.95
5.76 5.92 5.88 5.65 5.30 4.74 4.21 4.00 3.90 3.77 3.56 3.47 3.33 3.39 2.93 2.46 2.07 1.62 1.39 1.32 1.42 1.49 1.50 1.56 1.65 1.79 1.79 1.85 1.79 1.79 1.90 2.05 2.50 2.92 2.95 2.73 2.59 2.45 2.41 2.39 2.38 2.32 2.22
5.55 5.44 5.26 4.85 4.45 4.11 3.82 3.70 3.72 3.56 3.53 3.40 3.31 3.03 2.80 2.51 2.26 1.88 1.52 1.33 1.32 1.33 1.34 1.33 1.41 1.64 1.73 1.76 1.76 1.74 1.71 1.79 2.05 2.38 2.58 2.56 2.45 2.40 2.37 2.36 2.36 2.40 2.44
4.74 4.37 4.00 3.73 3.63 3.47 3.26 3.16 3.12 3.04 2.90 2.83 2.84 2.81 2.74 2.49 2.17 1.95 1.71 1.50 1.47 1.37 1.37 1.42 1.48 1.56 1.67 1.74 1.77 1.77 1.73 1.64 1.69 1.80 1.96 2.09 2.18 2.27 2.34 2.39 2.45 2.48 2.51
3.95 3.48 3.23 3.00 2.88 2.71 2.49 2.37 2.35 2.39 2.47 2.52 2.57 2.55 2.51 2.48 2.32 2.22 2.04 1.81 1.67 1.62 1.54 1.49 1.56 1.64 1.79 1.90 1.90 2.07 1.79 1.62 1.59 1.60 1.62 1.69 1.79 1.92 2.06 2.24 2.42 2.52 2.61
3.55 3.11 2.68 2.45 2.22 2.03 1.92 1.87 1.83 1.82 1.94 2.09 2.22 2.27 2.25 2.20 2.16 2.18 2.23 2.05 1.81 1.68 1.56 1.53 1.58 1.68 1.73 1.87 2.07 2.25 1.93 1.78 1.65 1.54 1.47 1.48 1.53 1.59 1.68 1.78 1.98 2.17 2.34
2.94 2.61 2.20 1.85 1.62 1.49 1.42 1.46 1.48 1.50 1.55 1.66 1.77 1.92 1.95 1.90 1.96 2.04 2.11 2.18 2.11 1.84 1.58 1.54 1.66 1.72 1.74 1.74 1.96 2.08 1.81 1.84 1.64 1.53 1.47 1.43 1.41 1.41 1.46 1.55 1.71 1.87 1.97
2.05 1.84 1.62 1.45 1.32 1.27 1.25 1.25 1.23 1.23 1.30 1.39 1.47 1.58 1.70 1.73 1.77 1.85 1.96 2.06 2.12 2.02 1.80 1.66 1.67 1.67 1.69 1.74 1.89 1.54 1.48 1.71 1.60 1.52 1.45 1.36 1.29 1.27 1.26 1.30 1.36 1.43 1.52
1.39 1.32 1.23 1.19 1.13 1.06 1.09 1.13 1.07 1.06 1.16 1.20 1.21 1.29 1.40 1.49 1.57 1.66 1.78 1.88 1.93 1.91 1.84 1.66 1.60 1.60 1.59 1.54 1.70 1.38 1.39 1.58 1.47 1.39 1.32 1.26 1.20 1.19 1.17 1.19 1.24 1.26 1.26
1.12 1.08 1.06 1.04 1.01 0.99 0.98 0.97 0.95 0.95 1.01 1.14 1.22 1.27 1.32 1.37 1.45 1.48 1.50 1.55 1.68 1.79 1.87 1.80 1.63 1.59 1.60 1.56 1.49 1.31 1.22 1.20 1.24 1.30 1.26 1.22 1.14 1.07 1.07 1.05 1.01 1.01 1.00
1.00 1.00 0.99 0.98 0.99 1.02 1.03 0.99 0.90 0.89 0.95 1.04 1.11 1.16 1.16 1.16 1.23 1.33 1.39 1.38 1.43 1.55 1.67 1.73 1.64 1.51 1.47 1.48 1.44 1.37 1.17 1.06 1.05 1.10 1.04 0.99 0.99 0.94 0.89 0.88 0.87 0.85 0.82
1.00 0.95 0.90 0.92 0.98 1.01 1.00 0.97 0.91 0.89 0.89 0.94 0.96 0.96 0.97 1.00 1.01 1.05 1.11 1.17 1.21 1.24 1.37 1.42 1.42 1.36 1.32 1.27 1.31 1.30 1.20 1.22 1.04 1.01 0.91 0.83 0.80 0.78 0.73 0.69 0.71 0.75 0.74
0.95 0.95 0.93 0.90 0.89 0.84 0.76 0.70 0.71 0.75 0.75 0.75 0.76 0.76 0.81 0.89 0.90 0.92 0.90 0.94 1.00 1.11 1.21 1.25 1.23 1.24 1.24 1.16 1.19 1.23 1.21 1.16 1.04 0.87 0.88 0.76 0.68 0.62 0.62 0.62 0.58 0.58 0.60
0.80 0.79 0.78 0.74 0.68 0.58 0.50 0.47 0.52 0.55 0.59 0.60 0.63 0.61 0.61 0.71 0.80 0.78 0.72 0.81 0.92 1.03 1.09 1.12 1.07 1.01 1.01 1.06 1.07 1.05 1.04 1.04 0.98 0.86 0.90 0.81 0.74 0.70 0.70 0.67 0.61 0.57 0.57
0.83 0.72 0.67 0.65 0.59 0.46 0.45 0.42 0.46 0.54 0.59 0.61 0.64 0.64 0.58 0.58 0.61 0.59 0.59 0.71 0.86 0.90 0.95 1.02 1.01 1.00 1.00 1.00 1.01 1.02 1.06 1.09 1.10 0.92 0.88 0.81 0.74 0.78 0.76 0.71 0.66 0.56 0.53
0.91 0.87 0.76 0.68 0.66 0.59 0.49 0.41 0.44 0.53 0.60 0.62 0.61 0.60 0.52 0.49 0.54 0.55 0.56 0.60 0.68 0.70 0.78 0.92 1.02 1.00 1.01 1.05 1.10 1.06 1.12 1.17 1.14 1.04 1.06 0.97 0.78 0.73 0.60 0.56 0.59 0.51 0.49
0.88 0.85 0.80 0.72 0.64 0.50 0.36 0.30 0.32 0.43 0.55 0.58 0.56 0.56 0.58 0.57 0.53 0.53 0.53 0.56 0.66 0.72 0.74 0.78 0.94 0.95 0.92 0.97 1.04 1.11 1.18 1.19 1.15 1.11 1.16 1.13 0.83 0.75 0.62 0.65 0.61 0.49 0.44
0.74 0.71 0.65 0.59 0.58 0.46 0.26 0.21 0.25 0.42 0.56 0.53 0.47 0.44 0.48 0.52 0.53 0.51 0.55 0.67 0.75 0.80 0.68 0.68 0.78 0.85 0.87 0.92 0.92 0.99 1.19 1.35 1.30 1.09 1.08 1.15 0.95 0.81 0.72 0.72 0.65 0.56 0.49
0.66 0.57 0.50 0.49 0.49 0.45 0.29 0.23 0.27 0.41 0.50 0.48 0.47 0.44 0.41 0.42 0.43 0.43 0.54 0.68 0.79 0.79 0.72 0.73 0.88 0.98 0.95 1.02 1.00 1.03 1.25 1.34 1.30 1.26 1.09 1.11 1.04 1.01 0.96 0.77 0.71 0.67 0.63